Regional Weather Roundup
Issued by NWS Glasgow, MT

Home | Current Version | Previous Version | Text Only | Print | Product List | Glossary On
Versions: 1 2 3 4 5 6 7 8 9 10 11 12 13 14 15 16 17 18 19 20 21 22 23 24 25 26 27
000
ASUS45 KGGW 260315
RWRGGW
HOURLY WEATHER ROUNDUP FOR NORTHEAST MONTANA
NATIONAL WEATHER SERVICE GLASGOW MONTANA
900 PM MDT SAT OCT 25 2014

NOTE: "FAIR" INDICATES FEW OR NO CLOUDS BELOW 12,000 FEET WITH NO
SIGNIFICANT WEATHER AND/OR OBSTRUCTIONS TO VISISBILITY.

NORTHEAST MONTANA


CITY           SKY/WX    TMP DP  RH WIND       PRES   REMARKS
GLASGOW        PTCLDY    55  31  39 E17       29.67F
PLENTYWOOD       N/A     52  32  46 E12G26      N/A
WOLF POINT     CLOUDY    50  32  50 E12       29.72F
JORDAN           N/A     49  32  52 NE3       29.67F
WINNETT          N/A     50  36  58 SW3         N/A
SIDNEY         PTCLDY    52  30  43 CALM      29.81F
GLENDIVE       PTCLDY    48  34  57 E9        29.77F
MALTA            N/A     50  37  61 E3          N/A
SCOBEY           N/A     52  29  41 E20G25    29.74F

FORT PECK REPORTS


CITY           SKY/WX    TMP DP  RH WIND       PRES   REMARKS
FORT PECK        N/A     55  35  47 E21         N/A
THE PINES        N/A     55  40  56 NE5         N/A

SOUTHEAST MONTANA


CITY           SKY/WX    TMP DP  RH WIND       PRES   REMARKS
BILLINGS       CLOUDY    53  34  48 NW6       29.70F
MILES CITY     MOCLDY    61  35  37 VRB6      29.69F
BAKER          CLEAR     54  32  43 SE24      29.79F
LIVINGSTON     PTCLDY    68  26  20 SW18G25   29.73S

CENTRAL MONTANA


CITY           SKY/WX    TMP DP  RH WIND       PRES   REMARKS
HAVRE          CLOUDY    49  38  65 E6        29.59F
LEWISTOWN      MOCLDY    52  42  69 SE6       29.68F
GREAT FALLS    PTCLDY    46  41  82 SE7       29.61F
CUT BANK       MOCLDY    42  37  82 W14G23    29.66R
HELENA         CLEAR     48  41  76 S5        29.67F
BUTTE          PTCLDY    52  32  46 S7        29.76F
BOZEMAN        MOCLDY    49  35  58 S7        29.73F

WESTERN MONTANA


CITY           SKY/WX    TMP DP  RH WIND       PRES   REMARKS
MISSOULA       MOCLDY    46  43  89 E6        29.68F
KALISPELL      NOT AVBL

NORTH DAKOTA


CITY           SKY/WX    TMP DP  RH WIND       PRES   REMARKS
WILLISTON      PTCLDY    54  31  41 SE10G17   29.83F
DICKINSON      CLEAR     51  30  44 SE18G25   29.85F
MINOT          CLEAR     42  28  57 SE6       29.91F
BISMARCK       CLEAR     42  30  62 SE5       29.97F

SOUTHERN SASKATCHEWAN


CITY           SKY/WX    TMP DP  RH WIND       PRES   REMARKS
REGINA         MOCLDY    48  30  49 SE16      29.83F
ESTEVAN        CLOUDY    43  30  61 E9        29.87F
SWIFT CURRENT  MOCLDY    48  32  53 SE22G32   29.65F




USA.gov is the U.S. government's official web portal to all federal, state and local government web resources and services.